This is the latest recevied weather packets stored in our database for station/object IN3XSV-13. If no packets are shown the sender has not sent any weather packets the latest 10 day(s).
| Time | Temp. | Humidity | Pressure | Rain* | Wind** | Luminosity | Snow |
|---|---|---|---|---|---|---|---|
| 1777817633 | 23.33° C | 37% | 9955.5 hPa | 0 mm | - | - | - |
| 1777817333 | 23.89° C | 37% | 9955.6 hPa | 0 mm | - | - | - |
| 1777817033 | 23.89° C | 37% | 9955.6 hPa | 0 mm | - | - | - |
| 1777816733 | 23.89° C | 37% | 9955.6 hPa | 0 mm | - | - | - |
| 1777816433 | 23.89° C | 37% | 9955.6 hPa | 0 mm | - | - | - |
| 1777816133 | 24.44° C | 38% | 9955.4 hPa | 0 mm | - | - | - |
| 1777815833 | 23.89° C | 38% | 9955.5 hPa | 0 mm | - | - | - |
| 1777815533 | 23.89° C | 37% | 9955.4 hPa | 0 mm | - | - | - |
| 1777815233 | 24.44° C | 37% | 9955.4 hPa | 0 mm | - | - | - |
| 1777814933 | 24.44° C | 36% | 9955.4 hPa | 0 mm | - | - | - |
| 1777814633 | 23.89° C | 37% | 9955.6 hPa | 0 mm | - | - | - |
| 1777814333 | 23.89° C | 36% | 9955.5 hPa | 0 mm | - | - | - |
| 1777814033 | 24.44° C | 36% | 9955.7 hPa | 0 mm | - | - | - |
| 1777813733 | 24.44° C | 35% | 9955.7 hPa | 0 mm | - | - | - |
| 1777813434 | 25° C | 33% | 9955.6 hPa | 0 mm | - | - | - |
| 1777813133 | 25° C | 33% | 9955.6 hPa | 0 mm | - | - | - |
| 1777812834 | 25° C | 33% | 9955.6 hPa | 0 mm | - | - | - |
| 1777812533 | 25.56° C | 33% | 9955.7 hPa | 0 mm | - | - | - |
| 1777812234 | 25° C | 35% | 9955.8 hPa | 0 mm | - | - | - |
| 1777811933 | 24.44° C | 33% | 9956 hPa | 0 mm | - | - | - |
| 1777811633 | 24.44° C | 33% | 9955.8 hPa | 0 mm | - | - | - |
| 1777811333 | 25° C | 34% | 9956 hPa | 0 mm | - | - | - |
| 1777811033 | 25.56° C | 33% | 9956 hPa | 0 mm | - | - | - |
| 1777810734 | 25° C | 33% | 9956.1 hPa | 0 mm | - | - | - |
| 1777810433 | 25° C | 33% | 9956.1 hPa | 0 mm | - | - | - |
* Rain latest hour (hover to see other rain measurements)
** Current wind speed in m/s (hover to see current wind gust speed)